Location: Milevsko
(49.4500°N, 14.3670°E)
Time: 12:15:10
(UTC+01:00)

ISS - Pass Details

Date: 13 January 2018
Orbit: 402 x 407 km, 51.6° (Epoch: 20 January)

Event Time Altitude Azimuth Distance (km) Brightness Sun altitude
Exits shadow 05:34:01 38° 156° (SSE) 633 -2.7 -22.1°
Drops below altitude 10° 05:36:20 10° 130° (SE) 1,461 -0.2 -21.7°
Sets 05:38:26 0° 125° (SE) 2,320 1.1 -21.4°
